Volver al catálogo

STARLINK-34145

ActivoComunicacionesVLEO
NORAD 64110·PAYLOAD·🇺🇸 United States

Lanzado May 23, 2025 desde Vandenberg Space Force Base

Loading…

Próximos Pases (próximas 24 horas)

TLE

ActualizadoSource: CelesTrak SupGP

Época: Sep 15, 2026, 02:30 UTC

1 64110C 25110Q   26258.10465278 -.00070641  00000+0 -20861-2 0  2583
2 64110  53.1577 222.8382 0001234  86.0519 170.6450 15.34440806    17

Sigue STARLINK-34145 en tiempo real con AllMySat

Download on the App Store